Location: Dumpton Point
(51.3500°N, 1.4433°E)
Time: 04:56:46
(UTC+00:00)

Altair - Pass Details

Date: 05 October 2022
Orbit: 1501 x 1682 km, 47.2° (Epoch: 26 November)

Event Time Altitude Azimuth Distance (km) Brightness Sun altitude
Rises 03:41:07 0° 210° (SSW) 4,738 - -22.3°
Reaches altitude 10° 03:44:28 10° 202° (SSW) 3,782 - -21.8°
Exits shadow 03:45:10 12° 200° (SSW) 3,597 9.1 -21.7°
Maximum altitude 03:52:52 35° 141° (SE) 2,395 8.6 -20.6°
Drops below altitude 10° 04:01:32 10° 81° (E) 3,912 10.8 -19.3°
Sets 04:05:03 0° 73° (ENE) 4,919 11.9 -18.8°
